Time,TemperatureF,DewpointF,PressureIn,WindDirection,WindDirectionDegrees,WindSpeedMPH,WindSpeedGustMPH,Humidity,HourlyPrecipIn,Conditions,Clouds,dailyrainin,SolarRadiationWatts/m^2,SoftwareType,DateUTC
2013-02-15 00:01:00,35.0,24.0,-100.00,ESE,110,3.0,8.0,65,0.00,,,0.00,0.000000,,2013-02-15 07:01:00,
2013-02-15 00:11:00,35.0,24.0,-100.00,ESE,110,3.0,8.0,65,0.00,,,0.00,0.000000,,2013-02-15 07:11:00,
2013-02-15 00:42:00,33.0,23.0,-100.00,SSE,152,3.0,7.0,67,0.00,,,0.00,0.000000,,2013-02-15 07:42:00,
2013-02-15 00:52:00,33.0,23.0,-100.00,SSE,152,3.0,7.0,67,0.00,,,0.00,0.000000,,2013-02-15 07:52:00,
2013-02-15 01:01:00,33.0,23.0,-100.00,SSE,152,3.0,7.0,67,0.00,,,0.00,0.000000,,2013-02-15 08:01:00,
2013-02-15 01:11:00,33.0,23.0,-100.00,SSE,152,3.0,7.0,67,0.00,,,0.00,0.000000,,2013-02-15 08:11:00,
2013-02-15 01:32:00,33.0,25.0,-100.00,SE,124,4.0,6.0,73,0.00,,,0.00,0.000000,,2013-02-15 08:32:00,
2013-02-15 01:42:00,33.0,25.0,-100.00,SE,124,4.0,6.0,73,0.00,,,0.00,0.000000,,2013-02-15 08:42:00,
2013-02-15 01:53:00,33.0,25.0,-100.00,SE,124,4.0,6.0,73,0.00,,,0.00,0.000000,,2013-02-15 08:53:00,
2013-02-15 02:01:00,33.0,25.0,-100.00,SE,124,4.0,6.0,73,0.00,,,0.00,0.000000,,2013-02-15 09:01:00,
2013-02-15 02:12:00,33.0,25.0,-100.00,SE,124,4.0,6.0,73,0.00,,,0.00,0.000000,,2013-02-15 09:12:00,
2013-02-15 02:42:00,33.0,25.0,-100.00,SSE,160,2.0,7.0,71,0.00,,,0.00,0.000000,,2013-02-15 09:42:00,
2013-02-15 02:52:00,33.0,25.0,-100.00,SSE,160,2.0,7.0,71,0.00,,,0.00,0.000000,,2013-02-15 09:52:00,
2013-02-15 03:01:00,33.0,25.0,-100.00,SSE,160,2.0,7.0,71,0.00,,,0.00,0.000000,,2013-02-15 10:01:00,
2013-02-15 03:11:00,33.0,25.0,-100.00,SSE,160,2.0,7.0,71,0.00,,,0.00,0.000000,,2013-02-15 10:11:00,
2013-02-15 03:42:00,32.0,26.0,-100.00,North,353,2.0,5.0,78,0.00,,,-99.99,0.000000,,2013-02-15 10:42:00,
2013-02-15 03:52:00,32.0,26.0,-100.00,North,353,2.0,5.0,78,0.00,,,-99.99,0.000000,,2013-02-15 10:52:00,
2013-02-15 04:01:00,32.0,26.0,-100.00,North,353,2.0,5.0,78,0.00,,,-99.99,0.000000,,2013-02-15 11:01:00,
2013-02-15 04:11:00,32.0,26.0,-100.00,North,353,2.0,5.0,78,0.00,,,-99.99,0.000000,,2013-02-15 11:11:00,
2013-02-15 04:32:00,31.0,26.0,-100.00,SSW,212,1.0,5.0,80,0.00,,,0.00,0.000000,,2013-02-15 11:32:00,
2013-02-15 04:42:00,31.0,26.0,-100.00,SSW,212,1.0,5.0,80,0.00,,,0.00,0.000000,,2013-02-15 11:42:00,
2013-02-15 04:52:00,31.0,26.0,-100.00,SSW,212,1.0,5.0,80,0.00,,,0.00,0.000000,,2013-02-15 11:52:00,
2013-02-15 05:01:00,31.0,26.0,-100.00,SSW,212,1.0,5.0,80,0.00,,,0.00,0.000000,,2013-02-15 12:01:00,
2013-02-15 05:11:00,31.0,26.0,-100.00,SSW,212,1.0,5.0,80,0.00,,,0.00,0.000000,,2013-02-15 12:11:00,
2013-02-15 05:32:00,29.0,25.0,-100.00,South,170,3.0,7.0,85,0.00,,,0.00,0.000000,,2013-02-15 12:32:00,
2013-02-15 05:42:00,29.0,25.0,-100.00,South,170,3.0,7.0,85,0.00,,,0.00,0.000000,,2013-02-15 12:42:00,
2013-02-15 05:52:00,29.0,25.0,-100.00,South,170,3.0,7.0,85,0.00,,,0.00,0.000000,,2013-02-15 12:52:00,
2013-02-15 06:02:00,29.0,25.0,-100.00,South,170,3.0,7.0,85,0.00,,,0.00,0.000000,,2013-02-15 13:02:00,
2013-02-15 06:11:00,29.0,25.0,-100.00,South,170,3.0,7.0,85,0.00,,,0.00,0.000000,,2013-02-15 13:11:00,
2013-02-15 06:42:00,29.0,24.0,-100.00,WSW,256,2.0,7.0,80,-99.99,,,-99.99,0.000000,,2013-02-15 13:42:00,
2013-02-15 06:52:00,29.0,24.0,-100.00,WSW,256,2.0,7.0,80,-99.99,,,-99.99,0.000000,,2013-02-15 13:52:00,
2013-02-15 07:01:00,29.0,24.0,-100.00,WSW,256,2.0,7.0,80,-99.99,,,-99.99,0.000000,,2013-02-15 14:01:00,
2013-02-15 07:11:00,29.0,24.0,-100.00,WSW,256,2.0,7.0,80,-99.99,,,-99.99,0.000000,,2013-02-15 14:11:00,
2013-02-15 07:42:00,27.0,25.0,-100.00,SSW,201,2.0,5.0,91,-99.99,,,0.00,0.000000,,2013-02-15 14:42:00,
2013-02-15 07:52:00,27.0,25.0,-100.00,SSW,201,2.0,5.0,91,-99.99,,,0.00,0.000000,,2013-02-15 14:52:00,
2013-02-15 08:01:00,27.0,25.0,-100.00,SSW,201,2.0,5.0,91,-99.99,,,0.00,0.000000,,2013-02-15 15:01:00,
2013-02-15 08:11:00,27.0,25.0,-100.00,SSW,201,2.0,5.0,91,-99.99,,,0.00,0.000000,,2013-02-15 15:11:00,
2013-02-15 08:32:00,27.0,25.0,-100.00,South,189,2.0,4.0,91,-99.99,,,0.00,14.000000,,2013-02-15 15:32:00,
2013-02-15 08:42:00,27.0,25.0,-100.00,South,189,2.0,4.0,91,-99.99,,,0.00,14.000000,,2013-02-15 15:42:00,
2013-02-15 08:52:00,27.0,25.0,-100.00,South,189,2.0,4.0,91,-99.99,,,0.00,14.000000,,2013-02-15 15:52:00,
2013-02-15 09:01:00,27.0,25.0,-100.00,South,189,2.0,4.0,91,-99.99,,,0.00,14.000000,,2013-02-15 16:01:00,
2013-02-15 09:11:00,27.0,25.0,-100.00,South,189,2.0,4.0,91,-99.99,,,0.00,14.000000,,2013-02-15 16:11:00,
2013-02-15 09:32:00,33.0,30.0,-100.00,ESE,109,2.0,4.0,88,-99.99,,,0.00,116.000000,,2013-02-15 16:32:00,
2013-02-15 09:43:00,33.0,30.0,-100.00,ESE,109,2.0,4.0,88,-99.99,,,0.00,116.000000,,2013-02-15 16:43:00,
2013-02-15 09:52:00,33.0,30.0,-100.00,ESE,109,2.0,4.0,88,-99.99,,,0.00,116.000000,,2013-02-15 16:52:00,
2013-02-15 10:01:00,33.0,30.0,-100.00,ESE,109,2.0,4.0,88,-99.99,,,0.00,116.000000,,2013-02-15 17:01:00,
2013-02-15 10:11:00,33.0,30.0,-100.00,ESE,109,2.0,4.0,88,-99.99,,,0.00,116.000000,,2013-02-15 17:11:00,
2013-02-15 10:32:00,38.0,28.0,-100.00,South,188,1.0,4.0,67,0.00,,,-99.99,214.000000,,2013-02-15 17:32:00,
2013-02-15 10:42:00,38.0,28.0,-100.00,South,188,1.0,4.0,67,0.00,,,-99.99,214.000000,,2013-02-15 17:42:00,
2013-02-15 10:52:00,38.0,28.0,-100.00,South,188,1.0,4.0,67,0.00,,,-99.99,214.000000,,2013-02-15 17:52:00,
2013-02-15 11:01:00,38.0,28.0,-100.00,South,188,1.0,4.0,67,0.00,,,-99.99,214.000000,,2013-02-15 18:01:00,
2013-02-15 11:11:00,38.0,28.0,-100.00,South,188,1.0,4.0,67,0.00,,,-99.99,214.000000,,2013-02-15 18:11:00,
2013-02-15 11:42:00,45.0,28.0,-100.00,SSW,197,3.0,6.0,51,0.00,,,0.00,427.000000,,2013-02-15 18:42:00,
2013-02-15 11:52:00,45.0,28.0,-100.00,SSW,197,3.0,6.0,51,0.00,,,0.00,427.000000,,2013-02-15 18:52:00,
2013-02-15 12:01:00,45.0,28.0,-100.00,SSW,197,3.0,6.0,51,0.00,,,0.00,427.000000,,2013-02-15 19:01:00,
2013-02-15 12:11:00,45.0,28.0,-100.00,SSW,197,3.0,6.0,51,0.00,,,0.00,427.000000,,2013-02-15 19:11:00,
2013-02-15 12:42:00,47.0,26.0,-100.00,ENE,62,2.0,7.0,44,0.00,,,0.00,464.000000,,2013-02-15 19:42:00,
2013-02-15 12:52:00,47.0,26.0,-100.00,ENE,62,2.0,7.0,44,0.00,,,0.00,464.000000,,2013-02-15 19:52:00,
2013-02-15 13:01:00,47.0,26.0,-100.00,ENE,62,2.0,7.0,44,0.00,,,0.00,464.000000,,2013-02-15 20:01:00,
2013-02-15 13:11:00,47.0,26.0,-100.00,ENE,62,2.0,7.0,44,0.00,,,0.00,464.000000,,2013-02-15 20:11:00,
2013-02-15 13:42:00,50.0,27.0,-100.00,SSW,200,7.0,12.0,40,0.00,,,0.00,575.000000,,2013-02-15 20:42:00,
2013-02-15 13:52:00,50.0,27.0,-100.00,SSW,200,7.0,12.0,40,0.00,,,0.00,575.000000,,2013-02-15 20:52:00,
2013-02-15 14:01:00,50.0,27.0,-100.00,SSW,200,7.0,12.0,40,0.00,,,0.00,575.000000,,2013-02-15 21:01:00,
2013-02-15 14:11:00,50.0,27.0,-100.00,SSW,200,7.0,12.0,40,0.00,,,0.00,575.000000,,2013-02-15 21:11:00,
2013-02-15 14:42:00,51.0,27.0,-100.00,SSE,148,7.0,13.0,39,0.00,,,0.00,666.000000,,2013-02-15 21:42:00,
2013-02-15 14:52:00,51.0,27.0,-100.00,SSE,148,7.0,13.0,39,0.00,,,0.00,666.000000,,2013-02-15 21:52:00,
2013-02-15 15:02:00,51.0,27.0,-100.00,SSE,148,7.0,13.0,39,0.00,,,0.00,666.000000,,2013-02-15 22:02:00,
2013-02-15 15:11:00,51.0,27.0,-100.00,SSE,148,7.0,13.0,39,0.00,,,0.00,666.000000,,2013-02-15 22:11:00,
2013-02-15 15:42:00,52.0,27.0,-100.00,SSE,155,5.0,12.0,37,0.00,,,0.00,525.000000,,2013-02-15 22:42:00,
2013-02-15 15:52:00,52.0,27.0,-100.00,SSE,155,5.0,12.0,37,0.00,,,0.00,525.000000,,2013-02-15 22:52:00,
2013-02-15 16:02:00,52.0,27.0,-100.00,SSE,155,5.0,12.0,37,0.00,,,0.00,525.000000,,2013-02-15 23:02:00,
2013-02-15 16:11:00,52.0,27.0,-100.00,SSE,155,5.0,12.0,37,0.00,,,0.00,525.000000,,2013-02-15 23:11:00,
2013-02-15 16:32:00,54.0,27.0,-100.00,NNW,348,3.0,8.0,35,0.00,,,0.00,433.000000,,2013-02-15 23:32:00,
2013-02-15 16:42:00,54.0,27.0,-100.00,NNW,348,3.0,8.0,35,0.00,,,0.00,433.000000,,2013-02-15 23:42:00,
2013-02-15 16:52:00,54.0,27.0,-100.00,NNW,348,3.0,8.0,35,0.00,,,0.00,433.000000,,2013-02-15 23:52:00,
2013-02-15 17:02:00,54.0,27.0,-100.00,NNW,348,3.0,8.0,35,0.00,,,0.00,433.000000,,2013-02-16 00:02:00,
2013-02-15 17:11:00,54.0,27.0,-100.00,NNW,348,3.0,8.0,35,0.00,,,0.00,433.000000,,2013-02-16 00:11:00,
2013-02-15 17:32:00,49.0,27.0,-100.00,North,356,3.0,9.0,43,0.00,,,0.00,258.000000,,2013-02-16 00:32:00,
2013-02-15 17:42:00,49.0,27.0,-100.00,North,356,3.0,9.0,43,0.00,,,0.00,258.000000,,2013-02-16 00:42:00,
2013-02-15 17:52:00,49.0,27.0,-100.00,North,356,3.0,9.0,43,0.00,,,0.00,258.000000,,2013-02-16 00:52:00,
2013-02-15 18:02:00,49.0,27.0,-100.00,North,356,3.0,9.0,43,0.00,,,0.00,258.000000,,2013-02-16 01:02:00,
2013-02-15 18:11:00,49.0,27.0,-100.00,North,356,3.0,9.0,43,0.00,,,0.00,258.000000,,2013-02-16 01:11:00,
2013-02-15 18:32:00,35.0,25.0,-100.00,NE,40,6.0,9.0,67,0.00,,,-99.99,21.000000,,2013-02-16 01:32:00,
2013-02-15 18:42:00,35.0,25.0,-100.00,NE,40,6.0,9.0,67,0.00,,,-99.99,21.000000,,2013-02-16 01:42:00,
2013-02-15 18:52:00,35.0,25.0,-100.00,NE,40,6.0,9.0,67,0.00,,,-99.99,21.000000,,2013-02-16 01:52:00,
2013-02-15 19:01:00,35.0,25.0,-100.00,NE,40,6.0,9.0,67,0.00,,,-99.99,21.000000,,2013-02-16 02:01:00,
2013-02-15 19:11:00,35.0,25.0,-100.00,NE,40,6.0,9.0,67,0.00,,,-99.99,21.000000,,2013-02-16 02:11:00,
2013-02-15 19:42:00,35.0,28.0,-100.00,East,90,2.0,6.0,75,0.00,,,0.00,0.000000,,2013-02-16 02:42:00,
2013-02-15 19:52:00,35.0,28.0,-100.00,East,90,2.0,6.0,75,0.00,,,0.00,0.000000,,2013-02-16 02:52:00,
2013-02-15 20:01:00,35.0,28.0,-100.00,East,90,2.0,6.0,75,0.00,,,0.00,0.000000,,2013-02-16 03:01:00,
2013-02-15 20:11:00,35.0,28.0,-100.00,East,90,2.0,6.0,75,0.00,,,0.00,0.000000,,2013-02-16 03:11:00,
2013-02-15 20:42:00,30.0,24.0,-100.00,ESE,120,3.0,4.0,79,0.00,,,0.00,0.000000,,2013-02-16 03:42:00,
2013-02-15 20:52:00,30.0,24.0,-100.00,ESE,120,3.0,4.0,79,0.00,,,0.00,0.000000,,2013-02-16 03:52:00,
2013-02-15 21:01:00,30.0,24.0,-100.00,ESE,120,3.0,4.0,79,0.00,,,0.00,0.000000,,2013-02-16 04:01:00,
2013-02-15 21:11:00,30.0,24.0,-100.00,ESE,120,3.0,4.0,79,0.00,,,0.00,0.000000,,2013-02-16 04:11:00,
2013-02-15 21:32:00,29.0,26.0,-100.00,SW,230,2.0,4.0,89,0.00,,,0.00,0.000000,,2013-02-16 04:32:00,
2013-02-15 21:42:00,29.0,26.0,-100.00,SW,230,2.0,4.0,89,0.00,,,0.00,0.000000,,2013-02-16 04:42:00,
2013-02-15 21:52:00,29.0,26.0,-100.00,SW,230,2.0,4.0,89,0.00,,,0.00,0.000000,,2013-02-16 04:52:00,
2013-02-15 22:01:00,29.0,26.0,-100.00,SW,230,2.0,4.0,89,0.00,,,0.00,0.000000,,2013-02-16 05:01:00,
2013-02-15 22:11:00,29.0,26.0,-100.00,SW,230,2.0,4.0,89,0.00,,,0.00,0.000000,,2013-02-16 05:11:00,
2013-02-15 22:32:00,27.0,25.0,-100.00,SSE,153,2.0,3.0,91,0.00,,,0.00,0.000000,,2013-02-16 05:32:00,
2013-02-15 22:42:00,27.0,25.0,-100.00,SSE,153,2.0,3.0,91,0.00,,,0.00,0.000000,,2013-02-16 05:42:00,
2013-02-15 22:52:00,27.0,25.0,-100.00,SSE,153,2.0,3.0,91,0.00,,,0.00,0.000000,,2013-02-16 05:52:00,
2013-02-15 23:01:00,27.0,25.0,-100.00,SSE,153,2.0,3.0,91,0.00,,,0.00,0.000000,,2013-02-16 06:01:00,
2013-02-15 23:11:00,27.0,25.0,-100.00,SSE,153,2.0,3.0,91,0.00,,,0.00,0.000000,,2013-02-16 06:11:00,
2013-02-15 23:42:00,27.0,25.0,-100.00,South,172,2.0,4.0,92,0.00,,,0.00,0.000000,,2013-02-16 06:42:00,
2013-02-15 23:52:00,27.0,25.0,-100.00,South,172,2.0,4.0,92,0.00,,,0.00,0.000000,,2013-02-16 06:52:00,